owner,sensor,date,latitude,longitude,vertical_datum,sea_water_practical_salinity,qcFlag 
DISL,ioos:station:DISL:MHPA:1,2010-08-01T00:00:00Z,30.6671,-87.9365,3.582,0.56,1111122 
DISL,ioos:station:DISL:MHPA:1,2010-08-01T00:30:00Z,30.6671,-87.9365,3.583,0.55,1111122 
DISL,ioos:station:DISL:MHPA:1,2010-08-01T01:00:00Z,30.6671,-87.9365,3.602,0.56,1111122 
DISL,ioos:station:DISL:MHPA:1,2010-08-01T01:30:00Z,30.6671,-87.9365,3.755,0.58,1111122 
DISL,ioos:station:DISL:MHPA:1,2010-08-01T02:00:00Z,30.6671,-87.9365,3.788,0.57,1111122 
DISL,ioos:station:DISL:MHPA:1,2010-08-01T02:30:00Z,30.6671,-87.9365,3.632,0.55,1111122 
DISL,ioos:station:DISL:MHPA:1,2010-08-01T03:00:00Z,30.6671,-87.9365,3.459,0.57,1111122 
DISL,ioos:station:DISL:MHPA:1,2010-08-01T03:30:00Z,30.6671,-87.9365,3.48,0.58,1111122 
DISL,ioos:station:DISL:MHPA:1,2010-08-01T04:00:00Z,30.6671,-87.9365,3.493,0.62,1111122 
DISL,ioos:station:DISL:MHPA:1,2010-08-01T04:30:00Z,30.6671,-87.9365,3.481,0.6,1111122 
DISL,ioos:station:DISL:MHPA:1,2010-08-01T05:00:00Z,30.6671,-87.9365,3.581,0.61,1111122 
DISL,ioos:station:DISL:MHPA:1,2010-08-01T05:30:00Z,30.6671,-87.9365,3.624,0.63,1111122 
DISL,ioos:station:DISL:MHPA:1,2010-08-01T06:00:00Z,30.6671,-87.9365,3.589,0.62,1111122 
DISL,ioos:station:DISL:MHPA:1,2010-08-01T06:30:00Z,30.6671,-87.9365,3.694,0.58,1111122 
DISL,ioos:station:DISL:MHPA:1,2010-08-01T07:00:00Z,30.6671,-87.9365,3.745,0.6,1111122 
DISL,ioos:station:DISL:MHPA:1,2010-08-01T07:30:00Z,30.6671,-87.9365,3.793,0.62,1111122 
DISL,ioos:station:DISL:MHPA:1,2010-08-01T08:00:00Z,30.6671,-87.9365,3.783,0.6,1111122 
DISL,ioos:station:DISL:MHPA:1,2010-08-01T08:30:00Z,30.6671,-87.9365,3.73,0.6,1111122 
DISL,ioos:station:DISL:MHPA:1,2010-08-01T09:00:00Z,30.6671,-87.9365,3.676,0.6,1111122 
DISL,ioos:station:DISL:MHPA:1,2010-08-01T09:30:00Z,30.6671,-87.9365,3.655,0.6,1111122 
DISL,ioos:station:DISL:MHPA:1,2010-08-01T10:00:00Z,30.6671,-87.9365,3.718,0.6,1111122 
DISL,ioos:station:DISL:MHPA:1,2010-08-01T10:30:00Z,30.6671,-87.9365,3.668,0.61,1111122 
DISL,ioos:station:DISL:MHPA:1,2010-08-01T11:00:00Z,30.6671,-87.9365,3.579,0.6,1111122 
DISL,ioos:station:DISL:MHPA:1,2010-08-01T11:30:00Z,30.6671,-87.9365,3.521,0.61,1111122 
DISL,ioos:station:DISL:MHPA:1,2010-08-01T12:00:00Z,30.6671,-87.9365,3.498,0.61,1111122 
DISL,ioos:station:DISL:MHPA:1,2010-08-01T12:30:00Z,30.6671,-87.9365,3.454,0.61,1111122 
DISL,ioos:station:DISL:MHPA:1,2010-08-01T13:00:00Z,30.6671,-87.9365,3.411,0.63,1111122 
DISL,ioos:station:DISL:MHPA:1,2010-08-01T13:30:00Z,30.6671,-87.9365,3.369,0.63,1111122 
DISL,ioos:station:DISL:MHPA:1,2010-08-01T14:00:00Z,30.6671,-87.9365,3.292,0.59,1111122 
DISL,ioos:station:DISL:MHPA:1,2010-08-01T14:30:00Z,30.6671,-87.9365,3.237,0.57,1111122 
DISL,ioos:station:DISL:MHPA:1,2010-08-01T15:00:00Z,30.6671,-87.9365,3.203,0.58,1111122 
DISL,ioos:station:DISL:MHPA:1,2010-08-01T15:30:00Z,30.6671,-87.9365,3.165,0.59,1111122 
DISL,ioos:station:DISL:MHPA:1,2010-08-01T16:00:00Z,30.6671,-87.9365,3.094,0.6,1111122 
DISL,ioos:station:DISL:MHPA:1,2010-08-01T16:30:00Z,30.6671,-87.9365,3.026,0.61,1111122 
DISL,ioos:station:DISL:MHPA:1,2010-08-01T17:00:00Z,30.6671,-87.9365,2.991,0.6,1111122 
DISL,ioos:station:DISL:MHPA:1,2010-08-01T17:30:00Z,30.6671,-87.9365,3.017,0.6,1111122 
DISL,ioos:station:DISL:MHPA:1,2010-08-01T18:00:00Z,30.6671,-87.9365,3.062,0.61,1111122 
DISL,ioos:station:DISL:MHPA:1,2010-08-01T18:30:00Z,30.6671,-87.9365,3.068,0.62,1111122 
DISL,ioos:station:DISL:MHPA:1,2010-08-01T19:00:00Z,30.6671,-87.9365,3.077,0.62,1111122 
DISL,ioos:station:DISL:MHPA:1,2010-08-01T19:30:00Z,30.6671,-87.9365,3.125,0.61,1111122 
DISL,ioos:station:DISL:MHPA:1,2010-08-01T20:00:00Z,30.6671,-87.9365,3.174,0.6,1111122 
DISL,ioos:station:DISL:MHPA:1,2010-08-01T20:30:00Z,30.6671,-87.9365,3.225,0.6,1111122 
DISL,ioos:station:DISL:MHPA:1,2010-08-01T21:00:00Z,30.6671,-87.9365,3.302,0.6,1111122 
DISL,ioos:station:DISL:MHPA:1,2010-08-01T21:30:00Z,30.6671,-87.9365,3.338,0.62,1111122 
DISL,ioos:station:DISL:MHPA:1,2010-08-01T22:00:00Z,30.6671,-87.9365,3.386,0.62,1111122 
DISL,ioos:station:DISL:MHPA:1,2010-08-01T22:30:00Z,30.6671,-87.9365,3.522,0.62,1111122 
DISL,ioos:station:DISL:MHPA:1,2010-08-01T23:00:00Z,30.6671,-87.9365,3.695,0.62,1111122 
DISL,ioos:station:DISL:MHPA:1,2010-08-01T23:30:00Z,30.6671,-87.9365,3.717,0.62,1111122 
DISL,ioos:station:DISL:MHPA:1,2010-08-02T00:00:00Z,30.6671,-87.9365,3.721,0.61,1111122 
DISL,ioos:station:DISL:MHPA:1,2010-08-02T00:30:00Z,30.6671,-87.9365,3.769,0.6,1111122 
DISL,ioos:station:DISL:MHPA:1,2010-08-02T01:00:00Z,30.6671,-87.9365,3.802,0.6,1111122 
DISL,ioos:station:DISL:MHPA:1,2010-08-02T01:30:00Z,30.6671,-87.9365,3.865,0.6,1111122 
DISL,ioos:station:DISL:MHPA:1,2010-08-02T02:00:00Z,30.6671,-87.9365,3.905,0.6,1111122 
DISL,ioos:station:DISL:MHPA:1,2010-08-02T02:30:00Z,30.6671,-87.9365,3.909,0.61,1111122 
DISL,ioos:station:DISL:MHPA:1,2010-08-02T03:00:00Z,30.6671,-87.9365,3.957,0.61,1111122 
DISL,ioos:station:DISL:MHPA:1,2010-08-02T03:30:00Z,30.6671,-87.9365,3.943,0.61,1111122 
DISL,ioos:station:DISL:MHPA:1,2010-08-02T04:00:00Z,30.6671,-87.9365,3.98,0.61,1111122 
DISL,ioos:station:DISL:MHPA:1,2010-08-02T04:30:00Z,30.6671,-87.9365,3.984,0.61,1111122 
DISL,ioos:station:DISL:MHPA:1,2010-08-02T05:00:00Z,30.6671,-87.9365,3.983,0.61,1111122 
DISL,ioos:station:DISL:MHPA:1,2010-08-02T05:30:00Z,30.6671,-87.9365,4.056,0.61,1111122 
DISL,ioos:station:DISL:MHPA:1,2010-08-02T06:00:00Z,30.6671,-87.9365,4.027,0.61,1111122 
DISL,ioos:station:DISL:MHPA:1,2010-08-02T06:30:00Z,30.6671,-87.9365,4.036,0.61,1111122 
DISL,ioos:station:DISL:MHPA:1,2010-08-02T07:00:00Z,30.6671,-87.9365,4.171,0.61,1111122 
DISL,ioos:station:DISL:MHPA:1,2010-08-02T07:30:00Z,30.6671,-87.9365,4.22,0.61,1111122 
DISL,ioos:station:DISL:MHPA:1,2010-08-02T08:00:00Z,30.6671,-87.9365,4.326,0.61,1111122 
DISL,ioos:station:DISL:MHPA:1,2010-08-02T08:30:00Z,30.6671,-87.9365,4.436,0.61,1111122 
DISL,ioos:station:DISL:MHPA:1,2010-08-02T09:00:00Z,30.6671,-87.9365,4.369,0.62,1111122 
DISL,ioos:station:DISL:MHPA:1,2010-08-02T09:30:00Z,30.6671,-87.9365,4.286,0.62,1111122 
DISL,ioos:station:DISL:MHPA:1,2010-08-02T10:00:00Z,30.6671,-87.9365,4.303,0.62,1111122 
DISL,ioos:station:DISL:MHPA:1,2010-08-02T10:30:00Z,30.6671,-87.9365,4.276,0.62,1111122 
DISL,ioos:station:DISL:MHPA:1,2010-08-02T11:00:00Z,30.6671,-87.9365,4.193,0.62,1111122 
DISL,ioos:station:DISL:MHPA:1,2010-08-02T11:30:00Z,30.6671,-87.9365,4.115,0.62,1111122 
DISL,ioos:station:DISL:MHPA:1,2010-08-02T12:00:00Z,30.6671,-87.9365,4.072,0.62,1111122 
DISL,ioos:station:DISL:MHPA:1,2010-08-02T12:30:00Z,30.6671,-87.9365,4.055,0.63,1111122 
DISL,ioos:station:DISL:MHPA:1,2010-08-02T13:00:00Z,30.6671,-87.9365,4.051,0.65,1111122 
DISL,ioos:station:DISL:MHPA:1,2010-08-02T13:30:00Z,30.6671,-87.9365,4.03,0.65,1111122 
DISL,ioos:station:DISL:MHPA:1,2010-08-02T14:00:00Z,30.6671,-87.9365,3.888,0.65,1111122 
DISL,ioos:station:DISL:MHPA:1,2010-08-02T14:30:00Z,30.6671,-87.9365,3.789,0.65,1111122 
DISL,ioos:station:DISL:MHPA:1,2010-08-02T15:00:00Z,30.6671,-87.9365,3.726,0.65,1111122 
DISL,ioos:station:DISL:MHPA:1,2010-08-02T15:30:00Z,30.6671,-87.9365,3.632,0.65,1111122 
DISL,ioos:station:DISL:MHPA:1,2010-08-02T16:00:00Z,30.6671,-87.9365,3.464,0.65,1111122 
DISL,ioos:station:DISL:MHPA:1,2010-08-02T16:30:00Z,30.6671,-87.9365,3.343,0.65,1111122 
DISL,ioos:station:DISL:MHPA:1,2010-08-02T17:00:00Z,30.6671,-87.9365,3.261,0.64,1111122 
DISL,ioos:station:DISL:MHPA:1,2010-08-02T17:30:00Z,30.6671,-87.9365,3.229,0.7,1111122 
DISL,ioos:station:DISL:MHPA:1,2010-08-02T18:00:00Z,30.6671,-87.9365,3.261,0.66,1111122 
DISL,ioos:station:DISL:MHPA:1,2010-08-02T18:30:00Z,30.6671,-87.9365,3.202,0.64,1111122 
DISL,ioos:station:DISL:MHPA:1,2010-08-02T19:00:00Z,30.6671,-87.9365,3.126,0.63,1111122 
DISL,ioos:station:DISL:MHPA:1,2010-08-02T19:30:00Z,30.6671,-87.9365,3.18,0.63,1111122 
DISL,ioos:station:DISL:MHPA:1,2010-08-02T20:00:00Z,30.6671,-87.9365,3.392,0.63,1111122 
DISL,ioos:station:DISL:MHPA:1,2010-08-02T20:30:00Z,30.6671,-87.9365,3.346,0.66,1111122 
DISL,ioos:station:DISL:MHPA:1,2010-08-02T21:00:00Z,30.6671,-87.9365,3.157,0.66,1111122 
DISL,ioos:station:DISL:MHPA:1,2010-08-02T21:30:00Z,30.6671,-87.9365,3.062,0.67,1111122 
DISL,ioos:station:DISL:MHPA:1,2010-08-02T22:00:00Z,30.6671,-87.9365,3.043,0.67,1111122 
DISL,ioos:station:DISL:MHPA:1,2010-08-02T22:30:00Z,30.6671,-87.9365,2.956,0.66,1111122 
DISL,ioos:station:DISL:MHPA:1,2010-08-02T23:00:00Z,30.6671,-87.9365,2.987,0.66,1111122 
DISL,ioos:station:DISL:MHPA:1,2010-08-02T23:30:00Z,30.6671,-87.9365,3.077,0.66,1111122 
DISL,ioos:station:DISL:MHPA:1,2010-08-03T00:00:00Z,30.6671,-87.9365,3.059,0.66,1111122 
DISL,ioos:station:DISL:MHPA:1,2010-08-03T00:30:00Z,30.6671,-87.9365,3.073,0.66,1111122 
DISL,ioos:station:DISL:MHPA:1,2010-08-03T01:00:00Z,30.6671,-87.9365,3.24,0.66,1111122 
DISL,ioos:station:DISL:MHPA:1,2010-08-03T01:30:00Z,30.6671,-87.9365,3.534,0.66,1111122 
DISL,ioos:station:DISL:MHPA:1,2010-08-03T02:00:00Z,30.6671,-87.9365,3.753,0.66,1111122 
DISL,ioos:station:DISL:MHPA:1,2010-08-03T02:30:00Z,30.6671,-87.9365,3.545,0.66,1111122 
DISL,ioos:station:DISL:MHPA:1,2010-08-03T03:00:00Z,30.6671,-87.9365,3.328,0.66,1111122 
DISL,ioos:station:DISL:MHPA:1,2010-08-03T03:30:00Z,30.6671,-87.9365,3.201,0.69,1111122 
DISL,ioos:station:DISL:MHPA:1,2010-08-03T04:00:00Z,30.6671,-87.9365,3.243,0.68,1111122 
DISL,ioos:station:DISL:MHPA:1,2010-08-03T04:30:00Z,30.6671,-87.9365,3.684,0.68,1111122 
DISL,ioos:station:DISL:MHPA:1,2010-08-03T05:00:00Z,30.6671,-87.9365,3.819,0.68,1111122 
DISL,ioos:station:DISL:MHPA:1,2010-08-03T05:30:00Z,30.6671,-87.9365,3.722,0.68,1111122 
DISL,ioos:station:DISL:MHPA:1,2010-08-03T06:00:00Z,30.6671,-87.9365,3.86,0.69,1111122 
DISL,ioos:station:DISL:MHPA:1,2010-08-03T06:30:00Z,30.6671,-87.9365,4.1,0.68,1111122 
DISL,ioos:station:DISL:MHPA:1,2010-08-03T07:00:00Z,30.6671,-87.9365,4.167,0.68,1111122 
DISL,ioos:station:DISL:MHPA:1,2010-08-03T07:30:00Z,30.6671,-87.9365,4.208,0.68,1111122 
DISL,ioos:station:DISL:MHPA:1,2010-08-03T08:00:00Z,30.6671,-87.9365,4.17,0.69,1111122 
DISL,ioos:station:DISL:MHPA:1,2010-08-03T08:30:00Z,30.6671,-87.9365,4.258,0.7,1111122 
DISL,ioos:station:DISL:MHPA:1,2010-08-03T09:00:00Z,30.6671,-87.9365,4.404,0.69,1111122 
DISL,ioos:station:DISL:MHPA:1,2010-08-03T09:30:00Z,30.6671,-87.9365,4.431,0.68,1111122 
DISL,ioos:station:DISL:MHPA:1,2010-08-03T10:00:00Z,30.6671,-87.9365,4.445,0.69,1111122 
DISL,ioos:station:DISL:MHPA:1,2010-08-03T10:30:00Z,30.6671,-87.9365,4.445,0.68,1111122 
DISL,ioos:station:DISL:MHPA:1,2010-08-03T11:00:00Z,30.6671,-87.9365,4.444,0.68,1111122 
DISL,ioos:station:DISL:MHPA:1,2010-08-03T11:30:00Z,30.6671,-87.9365,4.384,0.68,1111122 
DISL,ioos:station:DISL:MHPA:1,2010-08-03T12:00:00Z,30.6671,-87.9365,4.361,0.69,1111122 
DISL,ioos:station:DISL:MHPA:1,2010-08-03T12:30:00Z,30.6671,-87.9365,4.265,0.69,1111122 
DISL,ioos:station:DISL:MHPA:1,2010-08-03T13:00:00Z,30.6671,-87.9365,4.191,0.69,1111122 
DISL,ioos:station:DISL:MHPA:1,2010-08-03T13:30:00Z,30.6671,-87.9365,4.16,0.69,1111122 
DISL,ioos:station:DISL:MHPA:1,2010-08-03T14:00:00Z,30.6671,-87.9365,4.048,0.69,1111122 
DISL,ioos:station:DISL:MHPA:1,2010-08-03T14:30:00Z,30.6671,-87.9365,3.947,0.69,1111122 
DISL,ioos:station:DISL:MHPA:1,2010-08-03T15:00:00Z,30.6671,-87.9365,3.85,0.69,1111122 
DISL,ioos:station:DISL:MHPA:1,2010-08-03T15:30:00Z,30.6671,-87.9365,3.731,0.69,1111122 
DISL,ioos:station:DISL:MHPA:1,2010-08-03T16:00:00Z,30.6671,-87.9365,3.613,0.69,1111122 
DISL,ioos:station:DISL:MHPA:1,2010-08-03T16:30:00Z,30.6671,-87.9365,3.538,0.69,1111122 
DISL,ioos:station:DISL:MHPA:1,2010-08-03T17:00:00Z,30.6671,-87.9365,3.513,0.69,1111122 
DISL,ioos:station:DISL:MHPA:1,2010-08-03T17:30:00Z,30.6671,-87.9365,3.8,0.69,1111122 
DISL,ioos:station:DISL:MHPA:1,2010-08-03T18:00:00Z,30.6671,-87.9365,3.943,0.69,1111122 
DISL,ioos:station:DISL:MHPA:1,2010-08-03T18:30:00Z,30.6671,-87.9365,3.611,0.7,1111122 
DISL,ioos:station:DISL:MHPA:1,2010-08-03T19:00:00Z,30.6671,-87.9365,3.286,0.71,1111122 
DISL,ioos:station:DISL:MHPA:1,2010-08-03T19:30:00Z,30.6671,-87.9365,3.117,0.74,1111122 
DISL,ioos:station:DISL:MHPA:1,2010-08-03T20:00:00Z,30.6671,-87.9365,3.055,0.76,1111122 
DISL,ioos:station:DISL:MHPA:1,2010-08-03T20:30:00Z,30.6671,-87.9365,2.96,0.75,1111122 
DISL,ioos:station:DISL:MHPA:1,2010-08-03T21:00:00Z,30.6671,-87.9365,2.871,0.73,1111122 
DISL,ioos:station:DISL:MHPA:1,2010-08-03T21:30:00Z,30.6671,-87.9365,2.814,0.72,1111122 
DISL,ioos:station:DISL:MHPA:1,2010-08-03T22:00:00Z,30.6671,-87.9365,2.785,0.72,1111122 
DISL,ioos:station:DISL:MHPA:1,2010-08-03T22:30:00Z,30.6671,-87.9365,2.816,0.72,1111122 
DISL,ioos:station:DISL:MHPA:1,2010-08-03T23:00:00Z,30.6671,-87.9365,2.83,0.71,1111122 
DISL,ioos:station:DISL:MHPA:1,2010-08-03T23:30:00Z,30.6671,-87.9365,2.8,0.71,1111122 
DISL,ioos:station:DISL:MHPA:1,2010-08-04T00:00:00Z,30.6671,-87.9365,2.848,0.72,1111122 
DISL,ioos:station:DISL:MHPA:1,2010-08-04T00:30:00Z,30.6671,-87.9365,2.984,0.72,1111122 
DISL,ioos:station:DISL:MHPA:1,2010-08-04T01:00:00Z,30.6671,-87.9365,3.05,0.72,1111122 
DISL,ioos:station:DISL:MHPA:1,2010-08-04T01:30:00Z,30.6671,-87.9365,3.055,0.72,1111122 
DISL,ioos:station:DISL:MHPA:1,2010-08-04T02:00:00Z,30.6671,-87.9365,3.142,0.72,1111122 
DISL,ioos:station:DISL:MHPA:1,2010-08-04T02:30:00Z,30.6671,-87.9365,3.232,0.73,1111122 
DISL,ioos:station:DISL:MHPA:1,2010-08-04T03:00:00Z,30.6671,-87.9365,3.34,0.74,1111122 
DISL,ioos:station:DISL:MHPA:1,2010-08-04T03:30:00Z,30.6671,-87.9365,3.44,0.75,1111122 
DISL,ioos:station:DISL:MHPA:1,2010-08-04T04:00:00Z,30.6671,-87.9365,3.516,0.75,1111122 
DISL,ioos:station:DISL:MHPA:1,2010-08-04T04:30:00Z,30.6671,-87.9365,3.631,0.75,1111122 
DISL,ioos:station:DISL:MHPA:1,2010-08-04T05:00:00Z,30.6671,-87.9365,3.751,0.76,1111122 
DISL,ioos:station:DISL:MHPA:1,2010-08-04T05:30:00Z,30.6671,-87.9365,3.799,0.76,1111122 
DISL,ioos:station:DISL:MHPA:1,2010-08-04T06:00:00Z,30.6671,-87.9365,3.92,0.75,1111122 
DISL,ioos:station:DISL:MHPA:1,2010-08-04T06:30:00Z,30.6671,-87.9365,4.041,0.75,1111122 
DISL,ioos:station:DISL:MHPA:1,2010-08-04T07:00:00Z,30.6671,-87.9365,4.125,0.76,1111122 
DISL,ioos:station:DISL:MHPA:1,2010-08-04T07:30:00Z,30.6671,-87.9365,4.199,0.76,1111122 
DISL,ioos:station:DISL:MHPA:1,2010-08-04T08:00:00Z,30.6671,-87.9365,4.307,0.77,1111122 
DISL,ioos:station:DISL:MHPA:1,2010-08-04T08:30:00Z,30.6671,-87.9365,4.408,0.77,1111122 
DISL,ioos:station:DISL:MHPA:1,2010-08-04T09:00:00Z,30.6671,-87.9365,4.42,0.78,1111122 
DISL,ioos:station:DISL:MHPA:1,2010-08-04T09:30:00Z,30.6671,-87.9365,4.442,0.8,1111122 
DISL,ioos:station:DISL:MHPA:1,2010-08-04T10:00:00Z,30.6671,-87.9365,4.455,0.79,1111122 
DISL,ioos:station:DISL:MHPA:1,2010-08-04T10:30:00Z,30.6671,-87.9365,4.467,0.79,1111122 
DISL,ioos:station:DISL:MHPA:1,2010-08-04T11:00:00Z,30.6671,-87.9365,4.439,0.78,1111122 
DISL,ioos:station:DISL:MHPA:1,2010-08-04T11:30:00Z,30.6671,-87.9365,4.447,0.79,1111122 
DISL,ioos:station:DISL:MHPA:1,2010-08-04T12:00:00Z,30.6671,-87.9365,4.447,0.79,1111122 
DISL,ioos:station:DISL:MHPA:1,2010-08-04T12:30:00Z,30.6671,-87.9365,4.371,0.79,1111122 
DISL,ioos:station:DISL:MHPA:1,2010-08-04T13:00:00Z,30.6671,-87.9365,4.343,0.8,1111122 
DISL,ioos:station:DISL:MHPA:1,2010-08-04T13:30:00Z,30.6671,-87.9365,4.291,0.8,1111122 
DISL,ioos:station:DISL:MHPA:1,2010-08-04T14:00:00Z,30.6671,-87.9365,4.184,0.85,1111122 
DISL,ioos:station:DISL:MHPA:1,2010-08-04T14:30:00Z,30.6671,-87.9365,4.058,0.9,1111122 
DISL,ioos:station:DISL:MHPA:1,2010-08-04T15:00:00Z,30.6671,-87.9365,3.955,0.9,1111122 
DISL,ioos:station:DISL:MHPA:1,2010-08-04T15:30:00Z,30.6671,-87.9365,4.112,0.86,1111122 
DISL,ioos:station:DISL:MHPA:1,2010-08-04T16:00:00Z,30.6671,-87.9365,4.7,0.87,1111122 
DISL,ioos:station:DISL:MHPA:1,2010-08-04T16:30:00Z,30.6671,-87.9365,4.346,0.88,1111122 
DISL,ioos:station:DISL:MHPA:1,2010-08-04T17:00:00Z,30.6671,-87.9365,3.76,0.86,1111122 
DISL,ioos:station:DISL:MHPA:1,2010-08-04T17:30:00Z,30.6671,-87.9365,3.494,0.87,1111122 
DISL,ioos:station:DISL:MHPA:1,2010-08-04T18:00:00Z,30.6671,-87.9365,3.792,0.86,1111122 
DISL,ioos:station:DISL:MHPA:1,2010-08-04T18:30:00Z,30.6671,-87.9365,3.66,0.88,1111122 
DISL,ioos:station:DISL:MHPA:1,2010-08-04T19:00:00Z,30.6671,-87.9365,3.363,0.88,1111122 
DISL,ioos:station:DISL:MHPA:1,2010-08-04T19:30:00Z,30.6671,-87.9365,3.238,0.86,1111122 
DISL,ioos:station:DISL:MHPA:1,2010-08-04T20:00:00Z,30.6671,-87.9365,3.223,0.84,1111122 
DISL,ioos:station:DISL:MHPA:1,2010-08-04T20:30:00Z,30.6671,-87.9365,3.132,0.85,1111122 
DISL,ioos:station:DISL:MHPA:1,2010-08-04T21:00:00Z,30.6671,-87.9365,3.06,0.85,1111122 
DISL,ioos:station:DISL:MHPA:1,2010-08-04T21:30:00Z,30.6671,-87.9365,3.049,0.82,1111122 
DISL,ioos:station:DISL:MHPA:1,2010-08-04T22:00:00Z,30.6671,-87.9365,2.951,0.84,1111122 
DISL,ioos:station:DISL:MHPA:1,2010-08-04T22:30:00Z,30.6671,-87.9365,2.852,0.9,1111122 
DISL,ioos:station:DISL:MHPA:1,2010-08-04T23:00:00Z,30.6671,-87.9365,2.772,0.89,1111122 
DISL,ioos:station:DISL:MHPA:1,2010-08-04T23:30:00Z,30.6671,-87.9365,2.683,0.91,1111122 
DISL,ioos:station:DISL:MHPA:1,2010-08-05T00:00:00Z,30.6671,-87.9365,2.606,0.92,1111122 
DISL,ioos:station:DISL:MHPA:1,2010-08-05T00:30:00Z,30.6671,-87.9365,2.562,0.92,1111122 
DISL,ioos:station:DISL:MHPA:1,2010-08-05T01:00:00Z,30.6671,-87.9365,2.551,0.92,1111122 
DISL,ioos:station:DISL:MHPA:1,2010-08-05T01:30:00Z,30.6671,-87.9365,2.585,0.93,1111122 
DISL,ioos:station:DISL:MHPA:1,2010-08-05T02:00:00Z,30.6671,-87.9365,2.649,0.93,1111122 
DISL,ioos:station:DISL:MHPA:1,2010-08-05T02:30:00Z,30.6671,-87.9365,2.74,0.93,1111122 
DISL,ioos:station:DISL:MHPA:1,2010-08-05T03:00:00Z,30.6671,-87.9365,2.882,0.93,1111122 
DISL,ioos:station:DISL:MHPA:1,2010-08-05T03:30:00Z,30.6671,-87.9365,3.039,0.92,1111122 
DISL,ioos:station:DISL:MHPA:1,2010-08-05T04:00:00Z,30.6671,-87.9365,3.164,0.93,1111122 
DISL,ioos:station:DISL:MHPA:1,2010-08-05T04:30:00Z,30.6671,-87.9365,3.294,0.94,1111122 
DISL,ioos:station:DISL:MHPA:1,2010-08-05T05:00:00Z,30.6671,-87.9365,3.406,0.94,1111122 
DISL,ioos:station:DISL:MHPA:1,2010-08-05T05:30:00Z,30.6671,-87.9365,3.571,0.94,1111122 
DISL,ioos:station:DISL:MHPA:1,2010-08-05T06:00:00Z,30.6671,-87.9365,3.755,0.94,1111122 
DISL,ioos:station:DISL:MHPA:1,2010-08-05T06:30:00Z,30.6671,-87.9365,3.906,0.94,1111122 
DISL,ioos:station:DISL:MHPA:1,2010-08-05T07:00:00Z,30.6671,-87.9365,3.955,0.92,1111122 
DISL,ioos:station:DISL:MHPA:1,2010-08-05T07:30:00Z,30.6671,-87.9365,4.032,0.93,1111122 
DISL,ioos:station:DISL:MHPA:1,2010-08-05T08:00:00Z,30.6671,-87.9365,4.155,0.93,1111122 
DISL,ioos:station:DISL:MHPA:1,2010-08-05T08:30:00Z,30.6671,-87.9365,4.339,0.91,1111122 
DISL,ioos:station:DISL:MHPA:1,2010-08-05T09:00:00Z,30.6671,-87.9365,4.488,0.92,1111122 
DISL,ioos:station:DISL:MHPA:1,2010-08-05T09:30:00Z,30.6671,-87.9365,4.568,0.93,1111122 
DISL,ioos:station:DISL:MHPA:1,2010-08-05T10:00:00Z,30.6671,-87.9365,4.62,0.96,1111122 
DISL,ioos:station:DISL:MHPA:1,2010-08-05T10:30:00Z,30.6671,-87.9365,4.748,1.03,1111122 
DISL,ioos:station:DISL:MHPA:1,2010-08-05T11:00:00Z,30.6671,-87.9365,4.803,1.02,1111122 
DISL,ioos:station:DISL:MHPA:1,2010-08-05T11:30:00Z,30.6671,-87.9365,4.849,0.98,1111122 
DISL,ioos:station:DISL:MHPA:1,2010-08-05T12:00:00Z,30.6671,-87.9365,4.84,0.99,1111122 
DISL,ioos:station:DISL:MHPA:1,2010-08-05T12:30:00Z,30.6671,-87.9365,4.727,0.99,1111122 
DISL,ioos:station:DISL:MHPA:1,2010-08-05T13:00:00Z,30.6671,-87.9365,4.721,1.0,1111122 
DISL,ioos:station:DISL:MHPA:1,2010-08-05T13:30:00Z,30.6671,-87.9365,4.725,0.98,1111122 
DISL,ioos:station:DISL:MHPA:1,2010-08-05T14:00:00Z,30.6671,-87.9365,4.685,1.0,1111122 
DISL,ioos:station:DISL:MHPA:1,2010-08-05T14:30:00Z,30.6671,-87.9365,4.586,1.01,1111122 
DISL,ioos:station:DISL:MHPA:1,2010-08-05T15:00:00Z,30.6671,-87.9365,4.518,1.01,1111122 
DISL,ioos:station:DISL:MHPA:1,2010-08-05T15:30:00Z,30.6671,-87.9365,4.448,1.05,1111122 
DISL,ioos:station:DISL:MHPA:1,2010-08-05T16:00:00Z,30.6671,-87.9365,4.312,1.12,1111122 
DISL,ioos:station:DISL:MHPA:1,2010-08-05T16:30:00Z,30.6671,-87.9365,4.238,1.29,1111122 
DISL,ioos:station:DISL:MHPA:1,2010-08-05T17:00:00Z,30.6671,-87.9365,4.213,1.05,1111122 
DISL,ioos:station:DISL:MHPA:1,2010-08-05T17:30:00Z,30.6671,-87.9365,4.164,0.98,1111122 
DISL,ioos:station:DISL:MHPA:1,2010-08-05T18:00:00Z,30.6671,-87.9365,3.981,0.98,1111122 
DISL,ioos:station:DISL:MHPA:1,2010-08-05T18:30:00Z,30.6671,-87.9365,3.84,0.99,1111122 
DISL,ioos:station:DISL:MHPA:1,2010-08-05T19:00:00Z,30.6671,-87.9365,3.801,0.99,1111122 
DISL,ioos:station:DISL:MHPA:1,2010-08-05T19:30:00Z,30.6671,-87.9365,3.758,0.98,1111122 
DISL,ioos:station:DISL:MHPA:1,2010-08-05T20:00:00Z,30.6671,-87.9365,3.646,0.99,1111122 
DISL,ioos:station:DISL:MHPA:1,2010-08-05T20:30:00Z,30.6671,-87.9365,3.525,1.0,1111122 
DISL,ioos:station:DISL:MHPA:1,2010-08-05T21:00:00Z,30.6671,-87.9365,3.399,1.0,1111122 
DISL,ioos:station:DISL:MHPA:1,2010-08-05T21:30:00Z,30.6671,-87.9365,3.296,1.01,1111122 
DISL,ioos:station:DISL:MHPA:1,2010-08-05T22:00:00Z,30.6671,-87.9365,3.216,1.01,1111122 
DISL,ioos:station:DISL:MHPA:1,2010-08-05T22:30:00Z,30.6671,-87.9365,3.136,1.01,1111122 
DISL,ioos:station:DISL:MHPA:1,2010-08-05T23:00:00Z,30.6671,-87.9365,3.061,1.02,1111122 
DISL,ioos:station:DISL:MHPA:1,2010-08-05T23:30:00Z,30.6671,-87.9365,2.987,1.01,1111122 
DISL,ioos:station:DISL:MHPA:1,2010-08-06T00:00:00Z,30.6671,-87.9365,2.919,1.02,1111122 
DISL,ioos:station:DISL:MHPA:1,2010-08-06T00:30:00Z,30.6671,-87.9365,2.842,1.08,1111122 
DISL,ioos:station:DISL:MHPA:1,2010-08-06T01:00:00Z,30.6671,-87.9365,2.763,1.16,1111122 
DISL,ioos:station:DISL:MHPA:1,2010-08-06T01:30:00Z,30.6671,-87.9365,2.695,1.22,1111122 
DISL,ioos:station:DISL:MHPA:1,2010-08-06T02:00:00Z,30.6671,-87.9365,2.682,1.18,1111122 
DISL,ioos:station:DISL:MHPA:1,2010-08-06T02:30:00Z,30.6671,-87.9365,2.713,1.1,1111122 
DISL,ioos:station:DISL:MHPA:1,2010-08-06T03:00:00Z,30.6671,-87.9365,2.771,1.09,1111122 
DISL,ioos:station:DISL:MHPA:1,2010-08-06T03:30:00Z,30.6671,-87.9365,2.86,1.1,1111122 
DISL,ioos:station:DISL:MHPA:1,2010-08-06T04:00:00Z,30.6671,-87.9365,2.947,1.13,1111122 
DISL,ioos:station:DISL:MHPA:1,2010-08-06T04:30:00Z,30.6671,-87.9365,3.033,1.21,1111122 
DISL,ioos:station:DISL:MHPA:1,2010-08-06T05:00:00Z,30.6671,-87.9365,3.186,1.15,1111122 
DISL,ioos:station:DISL:MHPA:1,2010-08-06T05:30:00Z,30.6671,-87.9365,3.368,1.14,1111122 
DISL,ioos:station:DISL:MHPA:1,2010-08-06T06:00:00Z,30.6671,-87.9365,3.506,1.26,1111122 
DISL,ioos:station:DISL:MHPA:1,2010-08-06T06:30:00Z,30.6671,-87.9365,3.63,1.34,1111122 
DISL,ioos:station:DISL:MHPA:1,2010-08-06T07:00:00Z,30.6671,-87.9365,3.758,1.44,1111122 
DISL,ioos:station:DISL:MHPA:1,2010-08-06T07:30:00Z,30.6671,-87.9365,3.887,1.39,1111122 
DISL,ioos:station:DISL:MHPA:1,2010-08-06T08:00:00Z,30.6671,-87.9365,4.074,1.23,1111122 
DISL,ioos:station:DISL:MHPA:1,2010-08-06T08:30:00Z,30.6671,-87.9365,4.181,1.2,1111122 
DISL,ioos:station:DISL:MHPA:1,2010-08-06T09:00:00Z,30.6671,-87.9365,4.249,1.24,1111122 
DISL,ioos:station:DISL:MHPA:1,2010-08-06T09:30:00Z,30.6671,-87.9365,4.343,1.36,1111122 
DISL,ioos:station:DISL:MHPA:1,2010-08-06T10:00:00Z,30.6671,-87.9365,4.453,1.33,1111122 
DISL,ioos:station:DISL:MHPA:1,2010-08-06T10:30:00Z,30.6671,-87.9365,4.572,1.27,1111122 
DISL,ioos:station:DISL:MHPA:1,2010-08-06T11:00:00Z,30.6671,-87.9365,4.655,1.38,1111122 
DISL,ioos:station:DISL:MHPA:1,2010-08-06T11:30:00Z,30.6671,-87.9365,4.776,1.39,1111122 
DISL,ioos:station:DISL:MHPA:1,2010-08-06T12:00:00Z,30.6671,-87.9365,4.841,1.41,1111122 
DISL,ioos:station:DISL:MHPA:1,2010-08-06T12:30:00Z,30.6671,-87.9365,4.927,1.55,1111122 
DISL,ioos:station:DISL:MHPA:1,2010-08-06T13:00:00Z,30.6671,-87.9365,4.973,1.64,1111122 
DISL,ioos:station:DISL:MHPA:1,2010-08-06T13:30:00Z,30.6671,-87.9365,4.844,1.66,1111122 
DISL,ioos:station:DISL:MHPA:1,2010-08-06T14:00:00Z,30.6671,-87.9365,4.875,1.58,1111122 
DISL,ioos:station:DISL:MHPA:1,2010-08-06T14:30:00Z,30.6671,-87.9365,4.834,1.7,1111122 
DISL,ioos:station:DISL:MHPA:1,2010-08-06T15:00:00Z,30.6671,-87.9365,4.78,1.56,1111122 
DISL,ioos:station:DISL:MHPA:1,2010-08-06T15:30:00Z,30.6671,-87.9365,4.644,1.56,1111122 